{"data":{"norad_id":61000,"intl_designator":"2024-158L","name":"STARLINK-11290 [DTC]","alt_names":[],"object_type":"PAYLOAD","status":"ACTIVE","operator":null,"country":"US","launch_date":"2024-09-05","launch_site_code":"AFETR","launch_vehicle":null,"mission":null,"orbit_class":"UNKNOWN","rcs_meters":null,"size_class":null,"mass_kg":null,"dimensions":null,"purposes":["comms"],"wikipedia_slug":null,"has_3d_model":false,"image_url":null,"decayed_at":null,"tle_current":{"epoch":"2026-05-24T19:59:52.914048Z","epoch_age_seconds":93051,"freshness":"FRESH","line1":"1 61000U 24158L   26144.83325132  .00001624  00000+0  18263-4 0  9997","line2":"2 61000  53.1588 265.9159 0001777  52.9766 307.1414 15.69717655 99610","mean_motion":15.69717655,"eccentricity":0.0001777,"inclination_deg":53.1588,"raan_deg":265.9159,"arg_perigee_deg":52.9766,"mean_anomaly_deg":307.1414,"bstar":1.8263e-5,"rev_number":9961,"period_min":91.736242846807,"perigee_km":358.50753033316,"apogee_km":360.90215932481,"semimajor_km":6737.841844829,"source":"CELESTRAK","updated_at":"2026-05-25T13:38:19.324208Z"}}}